Regional Weather Roundup
Issued by NWS

Home | Current Version | Previous Version | Text Only | Print | Product List | Glossary Off
Versions: 1 2 3 4 5 6 7 8 9 10 11 12 13 14 15 16 17 18 19 20 21 22 23 24 25 26 27 28 29 30 31 32 33 34 35 36 37 38 39 40 41 42 43 44 45 46 47 48 49 50

000
ASUS43 KFSD 250802
RWRSD

WEATHER ROUNDUP FOR SOUTH DAKOTA
NATIONAL WEATHER SERVICE SIOUX FALLS SD
200 AM CST SAT FEB 25 2017

NOTE: "FAIR" INDICATES FEW OR NO CLOUDS BELOW 12,000 FEET WITH NO
SIGNIFICANT WEATHER AND/OR OBSTRUCTIONS TO VISIBILITY.


SDZ001>005-009-010-012>017-250900-
NORTHWEST AND NORTH CENTRAL SOUTH DAKOTA

CITY           SKY/WX    TMP DP  RH WIND       PRES   REMARKS
BUFFALO          N/A     21  16  81 W5        29.90F WCI  15
FAITH            N/A     21  17  84 S13       30.00F WCI   9
MOBRIDGE       CLOUDY    23  15  71 SE6       30.03F WCI  16
$$

SDZ012>016-024>037-041>051-057-063-072>074-250900-
SOUTHWEST AND SOUTH CENTRAL SOUTH DAKOTA

CITY           SKY/WX    TMP DP  RH WIND       PRES   REMARKS
RAPID CTY ARPT CLEAR     13  10  88 CALM      29.98F
PIERRE         CLOUDY    21  16  81 S5        30.08F WCI  15
CUSTER         CLOUDY    10   6  84 W6        29.87F WCI   0
ELLSWORTH AFB  CLOUDY    17  14  86 NW6       29.97F WCI   9
PHILIP         CLOUDY    21  17  84 S6        30.05F WCI  13
PINE RIDGE     CLOUDY     2  -1  88 CALM      30.01F
SPEARFISH      FAIR      21  12  68 CALM      29.95F
WINNER         CLOUDY    17  10  74 SW7       30.10F WCI   8
$$

SDZ004>011-016>023-039-040-250900-
NORTHEAST SOUTH DAKOTA

CITY           SKY/WX    TMP DP  RH WIND       PRES   REMARKS
ABERDEEN       CLEAR     14  10  84 W3        30.08F
WATERTOWN      CLEAR     14  11  87 NW8       30.03F WCI   3
BROOKINGS      CLEAR     16  13  88 NW9       30.03F WCI   4
SISSETON         N/A     17  13  84 NW9       30.05F WCI   6
$$

SDZ017-020-022-023-036>040-048>070-250900-
SOUTHEAST SOUTH DAKOTA

CITY           SKY/WX    TMP DP  RH WIND       PRES   REMARKS
SIOUX FALLS    CLEAR     17  13  84 NW10      30.06S WCI   5
HURON          CLEAR     16  13  88 NW5       30.10F WCI   9
CHAMBERLAIN    CLOUDY    20  17  88 CALM      30.10F
MITCHELL       CLEAR     19  15  84 NW7       30.12F WCI  10
YANKTON        CLEAR     18  10  73 W14       30.11S WCI   4
$$

ABBREVIATIONS USED IN REMARKS
   TC - TEMPERATURE IN CELSIUS
  WCI - WIND CHILL INDEX
   HX - HEAT INDEX
  VSB - VISIBILITY




USA.gov is the U.S. government's official web portal to all federal, state and local government web resources and services.